sat.trackr.live / text

‹ back to catalog

TEVEL2-6

NORAD 63215 · 2025-052F

PAYLOAD ACTIVE UNKNOWN

§ Identity

Operator
Country
ISRA
Launch date
2025-03-15
Launch site
AFWTR
Launch vehicle
Mass (kg)
RCS (m²)

Purposes: comms

External: N2YO · Heavens-Above · Gunter

§ Orbital elements

Epoch: 2026-05-24T23:48:47.351808Z

Period
93.90 min
Inclination
97.3933°
Eccentricity
0.0003163
Mean motion
15.33474426 rev/d
Perigee alt
463.3 km
Apogee alt
467.6 km
Semi-major
6,843.6 km
B*
5.2246e-4
RAAN
41.2964°
Arg perigee
146.4393°
Mean anomaly
213.7050°
Rev number
6,655

§ Raw data

TEVEL2-61 63215U 25052F   26144.99221472  .00016846  00000+0  52246-3 0  99902 63215  97.3933  41.2964 0003163 146.4393 213.7050 15.33474426 66551

JSON: /api/v1/satellites/63215 · /tle

For live sub-satellite position, see the globe view (requires WebGL).

§ Visibility from observer

Set your observer location to see the next 7 days of passes ≥ 10°. The values pass through the URL so the page stays shareable.

No JS? Fill the form by hand. The geolocation button needs JavaScript.

§ Radio — SatNOGS DB

ModeDescriptionDownlinkUplink
BPSK Mode U - BPSK9k6 G3RUH - Beacon 436.400 MHz
FM Mode V/U - FM Transponder 436.400 MHz 145.970 MHz

2 transmitters · refreshed weekly from db.satnogs.org